Voltar ao catálogo

STARLINK-33762

AtivoComunicaçõesVLEO
NORAD 63442·PAYLOAD·🇺🇸 United States

Lançado Apr 4, 2025 de Vandenberg Space Force Base

Loading…

Próximas Passagens (próximas 24 horas)

TLE

AtualizadoSource: CelesTrak SupGP

Época: Sep 15, 2026, 03:04 UTC

1 63442C 25069K   26258.12826389  .00066444  00000+0  19630-2 0  2585
2 63442  53.1584 334.9433 0001213  99.1392 335.6835 15.34359048    12

Acompanhe STARLINK-33762 em tempo real com AllMySat

Download on the App Store